Regional Weather Roundup
Issued by NWS Newport/Morehead, NC

Current Version | Previous Version | Graphics & Text | Print | Product List | Glossary On
Versions: 1 2 3 4 5 6 7 8 9 10 11 12 13 14 15 16 17 18 19 20 21 22 23 24 25 26 27 28 29 30 31 32 33 34 35 36 37 38 39 40 41 42 43 44 45 46 47 48 49 50
000 ASUS42 KMHX 182022 RWRMHX WEATHER ROUNDUP FOR EASTERN NORTH CAROLINA NATIONAL WEATHER SERVICE NEWPORT/MOREHEAD CITY NC 300 PM EST THU DEC 18 2014 NOTE: "FAIR" INDICATES FEW OR NO CLOUDS BELOW 12,000 FEET WITH NO SIGNIFICANT WEATHER AND/OR OBSTRUCTIONS TO VISIBILITY NCZ015>017-031-032-045>047-102-103-182100- NORTH COAST CITY SKY/WX TMP DP RH WIND PRES REMARKS EDENTON MOSUNNY 47 29 50 CALM 30.10S ELIZABETH CITY SUNNY 51 27 39 W7 30.09F KITTY HAWK CLEAR 45 31 60 CALM 30.09S MANTEO SUNNY 45 31 56 N5 30.10F $$ NCZ045>047-081-094-103-104-182100- CENTRAL COAST CITY SKY/WX TMP DP RH WIND PRES REMARKS FRISCO SUNNY 47 33 58 VRB5 30.10S SWANQUARTER N/A 50 N/A N/A SW7 30.06S $$ NCZ095-097-098-100-101-182100- SOUTHERN COAST CITY SKY/WX TMP DP RH WIND PRES REMARKS BEAUFORT SUNNY 52 29 41 NE5 30.10S CEDAR ISLAND N/A 46 N/A N/A NW2 30.15S JACKSONVILLE SUNNY 55 29 36 VRB3 30.09F PINEY ISLAND CLEAR 50 30 46 NE7 30.10F WILMINGTON SUNNY 57 28 33 CALM 30.09S $$ NCZ011>013-027>030-043-044-078>080-089-090>093-098-182100- COASTAL PLAIN CITY SKY/WX TMP DP RH WIND PRES REMARKS AHOSKIE CLOUDY 46 29 51 CALM 30.10F CLINTON MOSUNNY 52 31 45 CALM 30.09F ELIZABETHTOWN SUNNY 56 28 35 CALM 30.08F GOLDSBORO CLOUDY 51 29 42 CALM 30.08F GREENVILLE MOSUNNY 50 28 43 CALM 30.11F HAVELOCK MOSUNNY 52 27 38 VRB3 30.10F KENANSVILLE MOSUNNY 51 26 37 CALM 30.10F KINSTON SUNNY 52 27 37 NW3 30.10F NEW BERN SUNNY 54 27 35 CALM 30.11S RICHLANDS PTSUNNY 52 28 40 NW3 30.08F ROCKY MOUNT CLOUDY 50 25 37 CALM 30.09F WASHINGTON MOSUNNY 49 27 42 CALM 30.09F WHITEVILLE SUNNY 56 27 33 CALM 30.08F $$ AMZ130-135-150-152-154-156-158-170-250-252-270-ANZ085-086-088-633-658-670-182100- MARINE OBSERVATIONS STATION/POSITION TIME TEMP WIND PRES WAVE SWELL AIR SEA DIR/SP/G HT/PER HT/PER (UTC) (F) (DEG/KT/KT) (MB) (FT/S) (FT/S) CHESAPEAKE LIGHT 2000 41 320/ 9/ 11 1019.3 64 E VA BEACH 2000 43 54 320/ 16/ 19 1018.1 4/ 7 2/ 9 DUCK 2000 43 48 20/ 5/ 6 1018.4 2 E DUCK 1900 49 N/A 4/ 6 10 NE DUCK 2000 52 N/A 4/ 7 OREGON INLET 2000 44 51 20/ 8/ 10 1019.1 13E OREGON INLT 2000 53 N/A 5/ 6 HATTERAS CG 2000 46 55 30/ 6/ 9 1019.5 DIAMOND BUOY 2000 48 1019.4 3/ 6 17 S OCRACOKE NOT AVBL CAPE LOOKOUT 2000 48 60/ 8/ 9 1019.2 BEAUFORT LAB 2000 51 53 360/ 5/ 5 1018.2 30 SE NEW RIVER 2000 51 60 30/ 8/ 10 1019.5 2/10 2/10 5 SE WRIGHTSVLE 2000 52 55 100/ 8/ 8 1019.0 225 S CAPE HAT 1947 68 73 330/ 8/ 12 1017.3 3/ 6 3/ 6 41 SE CHARLESTON 2000 62 73 360/ 2/ 4 1017.9 1/11 2/11 $$

USA.gov is the U.S. government's official web portal to all federal, state and local government web resources and services.